Regional Weather Roundup
Issued by NWS

Home | Current Version | Previous Version | Graphics & Text | Print | Product List | Glossary On
Versions: 1 2 3 4 5 6 7 8 9 10 11 12 13 14 15 16 17 18 19 20 21 22 23 24 25 26 27
000
ASUS45 KCYS 270410
RWRWY

WYOMING REGIONAL WEATHER ROUNDUP
NATIONAL WEATHER SERVICE CHEYENNE WY
1000 PM MDT WED JUL 26 2017

NOTE:  "FAIR" INDICATES FEW OR NO CLOUDS BELOW 12,000 FEET
WITH NO SIGNIFICANT WEATHER AND/OR OBSTRUCTIONS TO VISIBILITY.

WYZ001-270500-
YELLOWSTONE NATIONAL PARK

CITY           SKY/WX    TMP DP  RH WIND       PRES   REMARKS
LK YELLOWSTONE   N/A     57  53  86 CALM      30.40R
W YELLOWSTONE  NOT AVBL

$$
WYZ002>013-054>058-071-098>099-270500-
NORTHERN WYOMING

CITY           SKY/WX    TMP DP  RH WIND       PRES   REMARKS
JACKSON        FAIR      66  55  68 CALM      30.29R
CODY           FAIR      71  48  43 W6        30.19R
GREYBULL       MOCLDY    77  55  46 S9        30.08R
WORLAND        FAIR      74  54  49 SE14      30.11R
SHERIDAN       FAIR      76  53  44 SE16      30.09R
BUFFALO        FAIR      67  51  56 S20       30.20R
GILLETTE       FAIR      73  50  44 S13       30.18R
HULETT         FAIR      72  52  49 S8        30.20R
NEWCASTLE      FAIR      70  50  49 SE8       30.22R

$$
WYZ014>020-022>026-101>103-270500-
CENTRAL WYOMING

CITY           SKY/WX    TMP DP  RH WIND       PRES   REMARKS
BIG PINEY      FAIR      60  52  74 NW5       30.33R
PINEDALE       FAIR      61  45  55 CALM      30.34R
DUBOIS         FAIR      63  45  51 CALM      30.32S
LANDER         FAIR      68  54  60 SE3       30.21R
RIVERTON       FAIR      70  55  59 S7        30.21R
CASPER         FAIR      66  56  70 SW13      30.22R
DOUGLAS        MOCLDY    69  56  62 SE10      30.23F

$$
WYZ021-027>030-104>119-270500-
SOUTHERN WYOMING

CITY           SKY/WX    TMP DP  RH WIND       PRES   REMARKS
EVANSTON       FAIR      66  51  58 NW8       30.33R
KEMMERER         N/A     64  48  55 NW10      30.35S
FORT BRIDGER   FAIR      68  55  62 E3        30.35S
ROCK SPRINGS   MOCLDY    64  56  75 S7        30.32R
RAWLINS        CLOUDY    64  57  78 E5        30.34R
LARAMIE        CLOUDY    59  56  89 SE8       30.38S
CHEYENNE       CLOUDY    66  56  70 SE3       30.33S
TORRINGTON     FAIR      70  59  68 E9        30.19S
PINE BLUFFS    MOCLDY    66  55  68 NE5       30.27S

$$




USA.gov is the U.S. government's official web portal to all federal, state and local government web resources and services.